Location: ????????
(53.2973°N, 59.1348°E)
Time: 15:14:01
(UTC+00:00)

Daily predictions for brighter satellites

Satellite Brightness Start Highest point End
(mag) Time Altitude Azimuth Time Altitude Azimuth Time Altitude Azimuth
ATLAS 3B R/B 3.4 12:35:58 10° W 12:42:18 44° NNW 12:48:39 10° NE
Cosmos 1766 Rocket 4.2 12:39:51 10° NNW 12:44:13 64° W 12:48:36 10° S
CZ-4B R/B 3.5 12:39:05 10° S 12:44:23 71° WSW 12:49:42 10° NNW
SL-08 R/B 4.5 12:38:31 10° N 12:44:40 77° ENE 12:50:50 10° SSE
Meteor 2-3 Rocket 3.9 12:39:47 10° N 12:45:33 59° ENE 12:51:15 10° SSE
H-2A R/B 3.3 12:43:56 10° SE 12:47:30 37° ENE 12:51:03 10° N
Cosmos 1802 Rocket 4.3 12:42:53 10° NNW 12:49:14 77° W 12:55:27 10° S
SMAP 3.2 12:45:23 10° SE 12:49:54 52° ENE 12:54:27 10° N
ATLAS 5 CENTAUR R/B 2.3 12:44:57 10° NW 12:50:22 66° NE 12:56:40 10° ESE
COSMO-SKYMED 1 4.4 12:49:25 10° ENE 12:51:12 12° E 12:52:59 10° ESE
Feng Yun 1-1 Rocket 4.2 12:47:42 10° SSE 12:53:14 66° ENE 12:58:40 10° NNW
Cosmos 220 Rocket 4.2 12:49:37 10° SSW 12:53:52 73° WNW 12:58:11 10° NNE
FENGYUN 3A 4.4 12:48:53 10° S 12:54:15 59° W 12:59:39 10° NNW
Cosmos 1867 4.3 12:49:50 10° S 12:54:46 36° ESE 12:59:44 10° NE
Cosmos 2084 3.5 12:50:52 10° NW 12:55:15 88° SW 12:59:31 10° SE
Helios 1A Rocket 4.1 12:51:53 10° S 12:55:55 50° W 13:00:00 10° NNW
Sich 1 4.0 12:54:12 10° N 12:57:48 25° ENE 13:01:23 10° ESE
Cosmos 2061 Rocket 4.3 12:51:47 10° NNW 12:57:59 75° W 13:04:11 10° S
Cosmos 1238 Rocket 3.2 12:53:17 10° N 12:58:05 52° ENE 13:02:00 10° SSE
Cosmos 2344 3.8 12:51:06 10° SSW 12:58:27 61° SE 13:06:43 10° NE
Cosmos 540 Rocket 4.4 12:55:45 10° SW 13:00:44 46° NW 13:05:44 10° NNE
Cosmos 2278 Rocket 4.3 13:01:28 10° NW 13:04:42 15° NNW 13:07:56 10° NNE
Cosmos 1408 3.6 13:02:11 10° NNW 13:05:42 51° W 13:09:11 10° S
PSLV R/B 4.0 13:03:41 10° NNE 13:07:54 63° ESE 13:12:05 10° S
Cosmos 1656 Rocket 3.9 13:04:10 10° SW 13:09:40 70° NW 13:15:08 10° NNE
CZ-3B R/B 2.3 13:08:59 10° SW 13:10:58 53° SSE 13:13:10 15° ENE
GEOS 3 Rocket 4.3 13:06:40 10° NE 13:11:32 38° SE 13:16:24 10° SSW
NOAA 12 4.2 13:07:44 10° SE 13:12:56 56° ENE 13:18:10 10° N
Cosmos 1689 Rocket 3.6 13:12:47 10° N 13:15:39 38° WNW 13:18:30 10° SW
COBE Rocket 4.3 13:16:33 10° NNE 13:21:08 40° E 13:25:35 10° SSE
YAOGAN 1 3.4 13:20:53 10° ESE 13:24:37 29° ENE 13:28:21 10° N
USA 215 3.3 13:18:24 10° E 13:24:55 72° NNE 13:31:25 10° WNW
Cosmos 1356 Rocket 4.4 13:22:47 10° SSE 13:26:19 27° E 13:29:54 10° NNE
Cosmos 2221 2.5 13:22:04 10° S 13:26:19 67° E 13:30:40 10° NNE
Cosmos 2233 Rocket 4.1 13:23:51 10° NNW 13:30:13 84° W 13:36:32 10° S
Cosmos 1825 3.8 13:26:44 10° NNW 13:30:17 38° W 13:33:48 10° SSW
Cosmos 2219 3.4 13:24:47 10° NW 13:30:25 74° WSW 13:36:00 10° SSE
USA 229 DEB 4.3 13:25:48 10° S 13:31:40 35° ESE 13:36:26 16° ENE
USA 229 4.3 13:25:56 10° S 13:31:46 35° ESE 13:36:30 16° ENE
Aureole 2 Rocket 4.1 13:29:19 10° WSW 13:32:25 31° NW 13:35:40 10° N
Lacrosse 4 Rocket 3.4 13:31:16 10° SE 13:31:56 11° ESE 13:31:56 11° ESE
Okean-O 2.5 13:28:47 10° SSE 13:33:13 79° ENE 13:37:40 10° NNW
Cosmos 1842 Rocket 3.7 13:30:09 10° SSW 13:34:39 79° WNW 13:39:09 10° N
Cosmos 2369 Rocket 3.7 13:32:36 10° W 13:37:30 30° NW 13:42:27 10° NNE
NOSS 3-1 (C) 4.1 13:33:01 10° S 13:37:57 32° ESE 13:41:34 18° ENE
Cosmos 1340 Rocket 4.1 13:35:13 10° SW 13:39:04 43° WNW 13:42:59 10° N
Cosmos 1447 Rocket 4.5 13:33:07 10° S 13:39:18 69° E 13:45:35 10° NNE
SKYMED 2 4.3 13:35:58 10° NNE 13:39:52 31° E 13:43:45 10° SSE
Cosmos 1633 2.8 13:41:23 10° N 13:44:55 45° ENE 13:48:26 10° SSE
CZ-4B R/B 4.3 13:45:26 10° NNW 13:47:17 14° WNW 13:49:09 10° W
Cosmos 1869 3.4 13:43:48 10° S 13:47:39 53° E 13:51:31 10° NNE
CSL-04 Rocket 3.7 13:43:19 10° SE 13:48:30 52° ENE 13:53:39 10° N
CZ-2D R/B 4.1 13:48:31 26° E 13:49:15 28° ENE 13:52:36 10° N
CZ-4 R/B 1.5 13:45:29 10° SSE 13:49:33 55° ENE 13:53:34 10° N
Envisat 2.9 13:44:56 10° SSE 13:50:01 85° ENE 13:55:08 10° NNW
Cosmos 1805 Rocket 3.5 13:46:34 10° NNW 13:50:57 89° WSW 13:55:19 10° S
Cosmos 2227 Rocket 2.3 13:45:58 10° NNW 13:51:40 80° WSW 13:57:19 10° SSE
Cosmos 1464 Rocket 3.9 13:45:34 10° N 13:51:44 64° ENE 13:57:48 10° SSE
Cosmos 2297 Rocket 2.4 13:46:19 10° NW 13:51:59 75° WSW 13:57:37 10° SSE
Cosmos 1891 Rocket 4.5 13:45:47 10° N 13:52:11 65° ENE 13:58:25 10° SSE
Cosmos 1980 Rocket 4.1 13:50:35 10° SE 13:51:08 11° ESE 13:51:08 11° ESE
Meteor 2-20 Rocket 4.5 13:49:53 10° S 13:55:50 57° E 14:01:52 10° NNE
FengYun 1-2 T 4.1 13:51:12 10° SSE 13:56:43 78° ENE 14:02:14 10° NNW
Cosmos 1371 Rocket 4.4 13:54:26 10° NNW 13:59:25 42° NE 14:02:09 24° ESE
Cosmos 1072 Rocket 4.4 13:54:13 10° N 14:00:22 77° E 14:06:32 10° SSE
Cosmos 1939 Rocket 3.4 14:04:32 33° E 14:05:32 38° ENE 14:09:24 10° N
SeaSat 1 3.5 14:00:53 10° S 14:05:39 48° WSW 14:10:26 10° NW
Meteor 2-20 4.4 14:01:19 10° S 14:07:28 86° E 14:13:40 10° NNE
YAOGAN 6 2.4 14:04:19 10° SSE 14:07:49 88° ENE 14:11:21 10° NNW
Cosmos 2369 4.3 14:06:14 10° S 14:11:16 34° ESE 14:12:25 31° E
Cosmos 1943 Rocket 4.2 14:09:12 10° WNW 14:13:25 21° NNW 14:17:39 10° NNE
Geosat 3.9 14:10:25 18° NE 14:14:15 84° ESE 14:19:17 10° SSW
Meteor 2-2 Rocket 4.4 14:08:57 10° SSW 14:14:49 81° WNW 14:20:37 10° NNE
Cosmos 2263 Rocket 2.8 14:11:50 10° NNW 14:16:54 33° NE 14:17:46 32° ENE
CENTAUR R/B 3.7 14:11:11 10° WNW 14:17:46 39° N 14:21:47 24° NE
Cosmos 2082 3.8 14:13:00 10° NNW 14:18:39 78° WSW 14:24:16 10° SSE
USA 238 DEB 4.4 14:13:26 10° NW 14:20:03 42° NNE 14:23:01 29° ENE
USA 238 4.4 14:13:32 10° NW 14:20:09 42° NNE 14:23:06 29° ENE
Cosmos 1633 Rocket 2.9 14:16:50 10° N 14:21:16 85° E 14:25:41 10° SSE
NOSS 8 (A) 4.2 14:20:31 10° SW 14:23:18 69° SSW 14:23:18 69° SSW
Cosmos 1680 Rocket 4.1 14:20:41 10° S 14:24:56 36° ESE 14:24:56 36° ESE
Cosmos 1932 4.5 14:20:23 10° NW 14:26:57 81° NE 14:30:53 26° SE
NOSS 3-2 (A) 4.4 14:20:59 10° NW 14:27:28 42° NNE 14:30:23 31° ENE
COSMO-SKYMED 1 2.4 14:24:18 14° NNE 14:28:04 84° ESE 14:32:26 10° SSW
Genesis I 3.4 14:27:24 10° SW 14:31:25 72° NW 14:32:14 53° NNE
Cosmos 2278 4.3 14:26:19 10° S 14:30:54 36° ESE 14:30:54 36° ESE
Cosmos 1666 Rocket 3.9 14:27:18 10° NNW 14:31:42 66° W 14:36:01 10° S
IRS-1A Rocket 4.3 14:29:46 29° SE 14:32:32 56° ENE 14:38:09 10° N
Cosmos 1933 Rocket 4.2 14:28:30 10° N 14:31:32 38° NNE 14:31:32 38° NNE
Ariane Rocket 3.0 14:30:57 35° SE 14:32:54 58° ENE 14:37:56 10° N
Cosmos 1697 Rocket 2.9 14:27:45 10° S 14:33:06 45° ESE 14:33:34 44° E
Cosmos 1862 3.6 14:30:02 10° NNW 14:33:59 67° W 14:37:56 10° S
ATLAS 3B R/B 3.6 14:28:30 10° WNW 14:34:30 34° N 14:36:57 26° NE
ATLAS 5 CENTAUR R/B 3.7 14:29:43 10° WNW 14:35:00 39° SW 14:40:58 10° S
Sich 1 4.1 14:31:32 10° NNW 14:35:42 46° W 14:39:52 10° SSW
H-2A R/B 3.3 14:38:47 27° NNE 14:38:47 27° NNE 14:41:58 10° N
Cosmos 1867 4.0 14:32:45 10° WSW 14:38:11 61° NW 14:40:50 30° NNE
Cosmos 1328 Rocket 4.2 14:37:07 10° S 14:40:08 41° SSE 14:40:08 41° SSE
Meteor 1-25 Rocket 4.3 14:38:39 10° N 14:44:08 50° ENE 14:44:08 50° ENE
Cosmos 2227 4.3 14:39:22 10° NNW 14:45:07 59° NE 14:45:57 53° E
Cosmos 2034 Rocket 4.1 14:41:24 10° NNW 14:47:46 77° W 14:54:07 10° S
Cosmos 1151 Rocket 4.4 14:43:31 10° S 14:45:30 26° S 14:45:30 26° S
Cosmos 923 Rocket 3.8 14:44:20 10° SSW 14:49:31 69° ESE 14:50:03 64° ENE
GEOS 3 Rocket 3.9 14:47:42 35° NNE 14:49:48 64° NW 14:55:00 10° WSW
Gblst 52 Del rocket 4.4 14:43:06 10° W 14:49:57 76° S 14:51:28 53° ESE
Cosmos 2278 Rocket 4.2 14:48:23 10° NNW 14:51:20 14° NNE 14:51:54 14° NNE
Cosmos 1624 Rocket 3.9 14:46:21 10° NNW 14:51:44 83° ENE 14:53:04 52° SE
Cosmos 2056 Rocket 3.3 14:46:34 10° NNW 14:51:44 81° ENE 14:52:34 63° SE
Cosmos 2346 Rocket 4.3 14:46:03 10° S 14:52:15 72° E 14:58:26 10° NNE
Meteor 1-20 Rocket 4.2 14:51:10 10° N 14:57:00 61° ENE 14:57:10 61° E
ARGOS 4.3 14:59:20 29° NNE 14:59:20 29° NNE 15:02:24 10° N
YAOGAN 1 3.8 14:56:30 10° S 15:00:35 41° W 15:04:44 10° NNW
Cosmos 1844 Rocket 4.2 14:56:49 10° NNW 15:00:12 22° NNE 15:00:12 22° NNE
Cosmos 1470 Rocket 3.8 14:58:02 10° NNW 15:02:31 69° W 15:03:28 52° SSW
NOAA 11 4.5 14:58:45 10° S 15:04:08 66° WSW 15:09:35 10° NNW
USA 215 3.4 15:05:43 42° SE 15:08:02 67° SSW 15:14:34 10° WNW
Cosmos 1656 3.8 15:02:59 10° SW 15:08:32 72° NW 15:10:04 47° NNE
USA 116 4.4 15:08:09 48° NNW 15:09:13 64° WNW 15:14:01 10° SSW
NOSS 3-2 (C) 4.3 15:03:15 10° NW 15:09:52 45° NNE 15:11:00 42° NE
Cosmos 1634 Rocket 3.8 15:03:59 10° N 15:10:14 77° ENE 15:11:14 63° SE
Lacrosse 4 Rocket 3.1 15:06:33 10° SSW 15:08:17 24° SSW 15:08:17 24° SSW
Cosmos 2344 4.2 15:05:40 10° W 15:13:10 55° NNW 15:17:43 29° NE
Tsikada Rocket 3.9 15:06:51 10° S 15:13:13 85° E 15:19:41 10° NNE
Cosmos 2142 Rocket 4.5 15:09:03 10° N 15:15:08 66° ENE 15:15:08 66° ENE
MOS 1 4.1 15:16:05 82° SE 15:16:21 87° ENE 15:22:03 10° NNW
Cosmos 1816 Rocket 4.5 15:14:35 10° SSW 15:20:58 83° WNW 15:27:23 10° N
USA 229 DEB 3.7 15:15:30 10° SW 15:22:09 75° NW 15:23:54 53° NNE
USA 229 3.7 15:15:37 10° SW 15:22:16 75° NW 15:23:57 53° NNE
Cosmos 2369 Rocket 4.4 15:20:31 10° NW 15:23:27 14° NNW 15:25:26 12° N
CZ-4 R/B 4.0 15:21:48 10° SW 15:24:53 20° W 15:27:56 10° NW
NOSS 3-1 (A) 3.3 15:21:24 10° SW 15:26:54 82° SSW 15:26:54 82° SSW
NOSS 3-1 (C) 3.5 15:22:26 10° WSW 15:28:14 73° NW 15:28:59 65° N
BREEZE-M DEB (TANK) 4.2 15:25:05 10° W 15:28:12 28° WSW 15:28:12 28° WSW
Timation 1 Rocket 4.4 15:27:21 10° NNW 15:32:33 68° NNW 15:32:33 68° NNW
Cosmos 2279 Rocket 4.5 15:28:58 10° N 15:33:25 48° N 15:33:25 48° N
Cosmos 1980 Rocket 3.8 15:30:54 10° SSW 15:32:58 23° SSW 15:32:58 23° SSW
Cosmos 2369 4.4 15:49:41 10° SW 15:54:24 50° W 15:54:24 50° W
Cosmos 2263 Rocket 3.2 15:55:42 10° NW 15:59:29 42° NW 15:59:29 42° NW
CENTAUR R/B 3.4 16:02:32 10° NW 16:08:57 54° N 16:08:57 54° N
USA 238 DEB 4.1 16:04:45 10° NW 16:10:28 61° NW 16:10:28 61° NW
USA 238 4.1 16:04:51 10° NW 16:10:33 61° NW 16:10:33 61° NW
H-2A R/B 3.9 16:19:25 26° NNW 16:19:25 26° NNW 16:21:47 10° NNW
Cosmos 1697 Rocket 4.1 16:11:43 10° WSW 16:15:21 34° W 16:15:21 34° W
NOSS 3-2 (A) 4.2 16:12:03 10° NW 16:17:46 61° NW 16:17:46 61° NW
ATLAS 3B R/B 3.7 16:20:00 10° NW 16:24:12 37° NNW 16:24:12 37° NNW
CZ-4C R/B 4.0 22:57:06 29° NE 22:57:06 29° NE 23:00:15 10° NE
COSMOS 2455 4.1 23:21:59 34° NNE 23:21:59 34° NNE 23:27:25 10° E
COSMOS 2406 4.0 23:37:44 48° ENE 23:37:44 48° ENE 23:41:58 10° NE
ATLAS 2AS CENTAUR R/B 3.6 23:35:41 44° NNW 23:37:20 50° NNE 23:44:32 10° E
SL-16 R/B 4.5 23:44:27 14° N 23:44:27 14° N 23:46:36 10° NNE
Lacrosse 5 3.7 23:47:25 25° SE 23:47:27 25° SE 23:51:33 10° ENE
Cosmos 2082 Rocket 3.7 23:46:11 23° SSE 23:48:43 32° ESE 23:53:44 10° NE
CZ-2C R/B 4.2 23:45:26 10° NNE 23:49:45 29° E 23:53:56 10° SSE
SJ 16-02 4.4 23:54:10 10° ESE 23:56:20 14° E 23:58:30 10° ENE
